User: anonymous   Login
Location: Waning Moon II Observatory
(30.3730°N, 89.7620°W)
Time: 20:24:54
(UTC-05:00)
Language:

Cosmos 1825 Rocket - Orbit

View from above orbital plane
View from above orbital plane
View from above satellite
View from above satellite

Ground track
Ground track

The orbit data is extracted from the following two-line orbital elements,

1 17567U 87024B   15091.44194788  .00000794  00000-0  93600-4 0  9990
2 17567 082.5288 234.8844 0020504 128.0563 232.2506 14.83378551516704
Epoch (UTC): 01 April 2015 10:36:24
Eccentricity: 0.0020504
inclination: 82.5288°
perigee height: 604 km
apogee height: 633 km
right ascension of ascending node: 234.8844°
argument of perigee: 128.0563°
revolutions per day: 14.83378551
mean anomaly at epoch: 232.2506°
orbit number at epoch: 51670

The dashed part of the orbit path shows where the satellite is in the earth's shadow,  

DLR